[[{"header":{"parameterUnit":"m.s-1","parameterCategory":1,"la1":30.2991,"la2":30.254,"lo1":-89.0895,"lo2":-89.0444,"dy":0.0017,"dx":0.0017,"nx":28,"ny":28,"refTime":"2024-04-08T21:00:00:Z","depth":0,"parameterNumber":2,"parameterNumberName":"U-component_of_WINDS"},"data":[0,0,0,0,0,0,0,0,0,0,0,0,0,0,0,0,0,0,0,0,0,0,0,0,0,0,0,0,0,0,0,0,0,0,0,0,0,0,0,0,0,0,0,0,0,0,0,0,0,0,0,0,0,0,0,0,0,0,-6.4938,-6.494,0,-6.5119,-6.5121,-6.5123,-6.5138,-6.5136,-6.5134,-6.5133,-6.5315,-6.5322,-6.5328,0,0,0,0,0,0,0,0,0,0,0,0,0,-6.4606,-6.4612,-6.4938,-6.494,-6.4942,-6.5118,-6.5121,-6.5123,-6.5139,-6.5136,-6.5134,-6.5132,-6.5313,-6.5321,-6.5329,0,0,0,0,0,0,0,0,0,0,0,0,0,-6.4764,-6.4614,-6.4938,-6.4971,-6.4976,-6.5118,-6.5121,-6.5124,-6.5139,-6.5136,-6.5133,-6.5131,-6.5311,-6.532,-6.533,-6.545,0,0,-6.5361,-6.5365,0,0,0,0,0,0,0,0,-6.4755,-6.4777,-6.4964,-6.4969,-6.4975,-6.5103,-6.5071,-6.5233,-6.514,-6.5077,-6.5133,-6.5129,-6.5247,-6.5262,-6.5302,-6.5458,-6.5466,-6.5362,-6.5368,-6.5372,-6.5375,0,0,0,0,0,0,0,-6.4744,-6.4769,-6.5009,-6.4967,-6.4973,-6.4977,-6.4997,-6.5102,-6.5176,-6.5082,-6.5084,-6.5105,-6.5249,-6.5292,-6.5306,-6.5469,-6.5361,-6.537,-6.5376,-6.538,-6.5732,-6.5735,0,0,0,0,0,0,-6.4727,-6.476,-6.5004,-6.5015,-6.4856,-6.4986,-6.5007,-6.5065,-6.5175,-6.5189,-6.5108,-6.5105,-6.5277,-6.5295,-6.5313,-6.5459,-6.5372,-6.5381,-6.5387,-6.5729,-6.5733,-6.5737,0,0,0,0,0,0,-6.472,-6.4749,-6.4996,-6.4888,-6.492,-6.4994,-6.5059,-6.507,-6.5113,-6.5194,-6.5207,-6.5138,-6.5275,-6.5299,-6.5416,-6.5466,-6.5386,-6.5395,-6.5725,-6.573,-6.5735,-6.5753,0,0,0,0,0,0,-6.471,-6.4746,-6.4792,-6.4889,-6.4925,-6.5096,-6.5062,-6.5075,-6.513,-6.5129,-6.5226,-6.5239,-6.5275,-6.5401,-6.5426,-6.5478,-6.5403,-6.5721,-6.5727,-6.5733,-6.5748,-6.5758,-6.5766,0,0,0,0,0,-6.4698,-6.479,-6.4794,-6.4824,-6.4985,-6.5099,-6.512,-6.5159,-6.5134,-6.5181,-6.5234,-6.5236,-6.5457,-6.5413,-6.5441,-6.5497,-6.5718,-6.5725,-6.5733,-6.5744,-6.5756,-6.5766,0,0,0,0,0,0,-6.4696,-6.4803,-6.4809,-6.4935,-6.5008,-6.5101,-6.5161,-6.5171,-6.5252,-6.5247,-6.5293,-6.5315,-6.543,-6.5476,-6.5424,-6.5619,-6.5585,-6.5598,-6.5583,-6.5596,-6.5605,-6.5589,-6.5411,0,0,0,0,0,-6.471,-6.4794,-6.4883,-6.4985,-6.5022,-6.5086,-6.5137,-6.5161,-6.5239,-6.5269,-6.533,-6.5405,-6.5491,-6.5546,-6.563,-6.5756,-6.5777,-6.5809,-6.5818,-6.5825,-6.5835,-6.5904,-6.5919,-6.5761,-6.5761,-6.5761,0,0,-6.4739,-6.4809,-6.4859,-6.4987,-6.5046,-6.5132,-6.5111,-6.5203,-6.5266,-6.5283,-6.5396,-6.5444,-6.5531,-6.5652,-6.5709,-6.5694,-6.5884,-6.5835,-6.584,-6.5846,-6.5914,-6.5928,-6.5942,-6.5767,-6.5766,-6.5765,0,0,-6.4836,-6.4898,-6.4989,-6.505,-6.5141,-6.5183,-6.5205,-6.5299,-6.5331,-6.5446,-6.546,-6.5537,-6.5685,-6.5746,-6.5796,-6.5919,-6.5924,-6.5946,-6.5991,-6.6059,-6.6071,-6.6082,-6.6124,-6.6139,-6.5956,-6.5956,-6.5956,0,-6.4861,-6.4991,-6.5035,-6.5126,-6.5182,-6.5203,-6.5295,-6.5352,-6.5465,-6.5503,-6.5485,-6.5672,-6.5732,-6.5867,-6.5897,-6.5938,-6.5964,-6.5933,-6.6066,-6.6077,-6.6088,-6.6129,-6.6145,-6.5958,-6.5958,-6.5958,-6.5957,0,-6.5016,-6.5107,-6.517,-6.5279,-6.5342,-6.5434,-6.5491,-6.555,-6.557,-6.5614,-6.5731,-6.5804,-6.5903,-6.5938,-6.5958,-6.6077,-6.6065,-6.6057,-6.6022,-6.6105,-6.6143,-6.6159,-6.5961,-6.596,-6.5959,-6.5959,0,0,-6.5113,-6.5247,-6.5269,-6.5319,-6.5423,-6.5493,-6.5586,-6.5684,-6.5732,-6.5811,-6.5889,-6.6015,-6.6009,-6.6066,-6.6094,-6.6153,-6.6244,-6.6137,-6.614,-6.6152,-6.6377,-6.638,-6.6398,-6.625,-6.6253,-6.6255,-6.6369,0,-6.5219,-6.5385,-6.5428,-6.5568,-6.5652,-6.5675,-6.5756,-6.5828,-6.5872,-6.5949,-6.5999,-6.6086,-6.6072,-6.6106,-6.6167,-6.622,-6.6289,-6.6213,-6.6321,-6.6324,-6.6294,-6.6418,-6.6422,-6.6525,-6.6385,-6.6387,-6.6389,0,-6.5364,-6.5447,-6.5596,-6.5689,-6.5725,-6.5797,-6.589,-6.5965,-6.6047,-6.6075,-6.614,-6.6163,-6.6261,-6.6225,-6.636,-6.6307,-6.6354,-6.6388,-6.6393,-6.6401,-6.6359,-6.6427,-6.656,-6.6574,-6.6414,-6.6412,-6.641,0,-6.5416,-6.5565,-6.5673,-6.5716,-6.5828,-6.5877,-6.5926,-6.6006,-6.6062,-6.6145,-6.6181,-6.6274,-6.6323,-6.6394,-6.6442,-6.6412,-6.6572,-6.654,-6.6596,-6.6595,-6.6625,-6.6622,-6.6764,-6.6662,-6.6662,-6.6661,-6.6661,0,-6.5529,-6.5618,-6.5698,-6.5764,-6.5865,-6.5915,-6.6014,-6.6064,-6.6135,-6.6211,-6.6238,-6.6308,-6.6368,-6.6447,-6.6485,-6.659,-6.6613,-6.6637,-6.6646,-6.6633,-6.6629,-6.6662,-6.6655,-6.6666,-6.6665,-6.6664,-6.6663,0,-6.5602,-6.566,-6.5779,-6.5876,-6.5902,-6.5972,-6.6055,-6.612,-6.6167,-6.6263,-6.6288,-6.6361,-6.6456,-6.6511,-6.663,-6.6656,-6.6771,-6.6778,-6.6743,-6.6746,-6.6798,-6.6791,-6.6963,-6.6987,-6.6871,-6.6872,-6.6873,0,-6.5668,-6.5738,-6.5843,-6.5896,-6.5946,-6.6031,-6.6089,-6.6141,-6.62,-6.6301,-6.6354,-6.645,-6.6529,-6.6679,-6.6743,-6.6834,-6.6841,-6.6896,-6.6855,-6.684,-6.6839,-6.6833,-6.6839,-6.6901,-6.6902,-6.6903,-6.6903,0,-6.5779,-6.5804,-6.5886,-6.598,-6.6048,-6.6124,-6.6199,-6.6241,-6.6306,-6.6371,-6.6469,-6.653,-6.6653,-6.6748,-6.6845,-6.6895,-6.691,-6.6917,-6.6934,-6.692,-6.6895,-6.6907,-6.6758,-6.6911,-6.691,-6.691,-6.6909,-6.6909,-6.5849,-6.5911,-6.5995,-6.6086,-6.6149,-6.6219,-6.6285,-6.6341,-6.6423,-6.6526,-6.6553,-6.6655,-6.6737,-6.6869,-6.6922,-6.7002,-6.6993,-6.7018,-6.7024,-6.7029,-6.7029,-6.6886,-6.702,-6.702,-6.702,-6.702,-6.702,0,-6.5958,-6.6014,-6.6098,-6.6202,-6.6274,-6.6284,-6.6369,-6.6427,-6.6517,-6.6593,-6.6671,-6.6783,-6.6875,-6.6947,-6.7042,-6.7093,-6.7102,-6.7115,-6.711,-6.7121,-6.7033,-6.7007,-6.7106,-6.7106,-6.7106,-6.7106,-6.7106,-6.7106,-6.6023,-6.6129,-6.6165,-6.6303,-6.6358,-6.6458,-6.6505,-6.657,-6.6631,-6.6754,-6.6832,-6.6878,-6.6953,-6.7054,-6.7139,-6.7158,-6.7191,-6.7203,-6.7222,-6.7137,-6.7128,-6.7119,-6.7094,-6.721,-6.721,-6.7304,-6.7304,-6.7305]},{"header":{"parameterUnit":"m.s-1","parameterCategory":1,"la1":30.2991,"la2":30.254,"lo1":-89.0895,"lo2":-89.0444,"dy":0.0017,"dx":0.0017,"nx":28,"ny":28,"refTime":"2024-04-08T21:00:00:Z","depth":0,"parameterNumber":3,"parameterNumberName":"V-component_of_WINDS"},"data":[0,0,0,0,0,0,0,0,0,0,0,0,0,0,0,0,0,0,0,0,0,0,0,0,0,0,0,0,0,0,0,0,0,0,0,0,0,0,0,0,0,0,0,0,0,0,0,0,0,0,0,0,0,0,0,0,0,0,5.1628,5.1629,0,5.1727,5.1728,5.173,5.1753,5.1753,5.1752,5.1752,5.1847,5.185,5.1853,0,0,0,0,0,0,0,0,0,0,0,0,0,5.1456,5.1459,5.1628,5.1629,5.1631,5.1727,5.1729,5.173,5.1754,5.1753,5.1752,5.1751,5.1846,5.1849,5.1853,0,0,0,0,0,0,0,0,0,0,0,0,0,5.154,5.146,5.1628,5.1654,5.1658,5.1727,5.1729,5.173,5.1754,5.1753,5.1752,5.1751,5.1845,5.1849,5.1854,5.1902,0,0,5.1868,5.187,0,0,0,0,0,0,0,0,5.1535,5.1546,5.1649,5.1653,5.1657,5.1727,5.1703,5.1788,5.1754,5.1717,5.1752,5.175,5.1807,5.1815,5.1836,5.1906,5.191,5.1868,5.1871,5.1873,5.1875,0,0,0,0,0,0,0,5.1529,5.1542,5.1667,5.1651,5.1655,5.166,5.1671,5.1719,5.1766,5.172,5.1722,5.1734,5.1809,5.1831,5.1838,5.1912,5.1868,5.1872,5.1875,5.1877,5.2029,5.203,0,0,0,0,0,0,5.152,5.1537,5.1664,5.167,5.1592,5.1664,5.1676,5.1705,5.1766,5.1774,5.1735,5.1735,5.1823,5.1832,5.1841,5.1903,5.1873,5.1878,5.188,5.2028,5.203,5.2031,0,0,0,0,0,0,5.1516,5.1531,5.166,5.1604,5.1621,5.1668,5.1701,5.1708,5.173,5.1777,5.1785,5.1749,5.1823,5.1835,5.1888,5.1907,5.188,5.1884,5.2027,5.2028,5.203,5.2026,0,0,0,0,0,0,5.1511,5.1529,5.1549,5.1605,5.1624,5.1706,5.1702,5.171,5.1739,5.1739,5.1792,5.18,5.1823,5.188,5.1892,5.1913,5.1888,5.2025,5.2027,5.203,5.2025,5.2028,5.203,0,0,0,0,0,5.1504,5.1542,5.155,5.1565,5.165,5.1707,5.1718,5.1746,5.174,5.176,5.179,5.1798,5.1903,5.1886,5.1899,5.1921,5.2024,5.2027,5.2029,5.2024,5.2027,5.203,0,0,0,0,0,0,5.1484,5.1549,5.1559,5.1616,5.1656,5.1711,5.1736,5.1748,5.1789,5.1788,5.182,5.1831,5.1882,5.1907,5.1887,5.1972,5.1963,5.1969,5.1954,5.1958,5.196,5.1953,5.1892,0,0,0,0,0,5.1486,5.1529,5.1583,5.1628,5.1648,5.1689,5.1715,5.1733,5.1775,5.1792,5.1826,5.1865,5.1907,5.1934,5.1975,5.2029,5.2041,5.2051,5.2053,5.2055,5.206,5.2091,5.2097,5.204,5.204,5.204,0,0,5.1491,5.1532,5.1556,5.1625,5.1658,5.1701,5.1703,5.1747,5.1778,5.1798,5.1851,5.1877,5.1923,5.1977,5.2003,5.1999,5.2078,5.2059,5.206,5.2063,5.2095,5.21,5.2105,5.2042,5.2041,5.2041,0,0,5.1521,5.1557,5.1599,5.1633,5.1685,5.1712,5.1723,5.1777,5.1796,5.1851,5.1867,5.1904,5.1975,5.2008,5.2033,5.208,5.2089,5.2092,5.2105,5.2136,5.2141,5.2145,5.2162,5.2168,5.2096,5.2096,5.2096,0,5.152,5.1586,5.1618,5.1663,5.1693,5.1716,5.1759,5.179,5.1851,5.1871,5.1867,5.1959,5.1991,5.2054,5.2066,5.2085,5.2098,5.2086,5.2138,5.2142,5.2146,5.2163,5.2169,5.2096,5.2096,5.2096,5.2096,0,5.1582,5.1628,5.1656,5.1718,5.1751,5.1794,5.1833,5.1862,5.1878,5.1906,5.1961,5.2001,5.2052,5.2068,5.2083,5.2134,5.2131,5.2132,5.2123,5.2152,5.2168,5.2174,5.2096,5.2096,5.2096,5.2096,0,0,5.16,5.1683,5.1692,5.1722,5.1782,5.1817,5.1862,5.1914,5.1939,5.1981,5.2019,5.208,5.2083,5.2112,5.2132,5.2159,5.2194,5.2157,5.2158,5.2163,5.2253,5.2252,5.2259,5.2201,5.2202,5.2203,5.225,0,5.1638,5.1721,5.1753,5.182,5.1863,5.1887,5.1926,5.1966,5.1994,5.2033,5.2063,5.2107,5.2106,5.2124,5.2152,5.2184,5.2213,5.2181,5.2236,5.2237,5.2224,5.2267,5.2266,5.2308,5.2256,5.2257,5.2258,0,5.1694,5.174,5.1812,5.187,5.1889,5.1923,5.1975,5.2013,5.2059,5.2078,5.2112,5.2131,5.2178,5.2167,5.2232,5.221,5.2235,5.2254,5.2256,5.2262,5.2249,5.2274,5.2322,5.2328,5.2268,5.2267,5.2267,0,5.1701,5.1781,5.1835,5.1859,5.1927,5.1951,5.198,5.2026,5.2056,5.2101,5.2121,5.2169,5.2195,5.2232,5.2263,5.2252,5.2325,5.2317,5.2341,5.2341,5.2355,5.2354,5.2407,5.2371,5.237,5.237,5.237,0,5.174,5.1783,5.184,5.1873,5.1922,5.1958,5.2006,5.2036,5.2077,5.2116,5.2139,5.2174,5.2213,5.2253,5.2277,5.2328,5.234,5.2355,5.2361,5.2353,5.2352,5.2369,5.2367,5.2372,5.2372,5.2371,5.2371,0,5.1756,5.1795,5.1856,5.1917,5.1933,5.1967,5.2018,5.2051,5.2081,5.213,5.2143,5.2189,5.2238,5.2273,5.2335,5.2351,5.2406,5.2412,5.2391,5.2394,5.2417,5.2414,5.2483,5.2494,5.245,5.2451,5.2451,0,5.1779,5.1813,5.1879,5.1908,5.1938,5.1984,5.2016,5.2052,5.2084,5.2142,5.2168,5.2219,5.2262,5.2339,5.2377,5.2425,5.2432,5.2453,5.2439,5.2431,5.2433,5.2431,5.2435,5.2455,5.2455,5.2455,5.2455,0,5.1815,5.1834,5.188,5.1934,5.1972,5.2015,5.2059,5.2081,5.2125,5.216,5.2212,5.2246,5.2312,5.2362,5.2415,5.2443,5.2457,5.246,5.2468,5.2461,5.2448,5.2456,5.2397,5.2458,5.2458,5.2457,5.2457,5.2457,5.1836,5.1868,5.192,5.1972,5.2009,5.205,5.2085,5.212,5.2165,5.2223,5.2242,5.2296,5.2343,5.2415,5.2444,5.2487,5.2485,5.2497,5.25,5.2502,5.2503,5.2441,5.2496,5.2496,5.2496,5.2496,5.2496,0,5.1874,5.191,5.1957,5.2019,5.2059,5.2071,5.2121,5.2153,5.2201,5.2245,5.2289,5.2349,5.2399,5.2442,5.2493,5.2519,5.2526,5.2531,5.2529,5.2536,5.25,5.2488,5.2524,5.2524,5.2524,5.2524,5.2524,5.2524,5.1899,5.1955,5.198,5.2056,5.209,5.2146,5.2173,5.2211,5.2247,5.2314,5.2357,5.2385,5.2429,5.2484,5.253,5.2542,5.256,5.2563,5.2575,5.2541,5.2538,5.2535,5.2524,5.2566,5.2566,5.2608,5.2608,5.2608]}]]